Currently 64°F in San Jacinto, California, USA
64°F
64°F / 54°F
4 mph SW
0.00"
Monday, May 4, 2026 3:49 PM PDT

San Jacinto, California Weather Summary
Last 36 Hours

Temperature Winds Hourly Humidity Dewpoint
Time Report Norm Report Norm Max Gusts Precip. Rpt. Norm Rpt. Norm Pressure
1Mon 03:49 PM  64.4°F  74°F  4 mph SW  4 mph  14 mph  0.00"  45%  43%  42°F  49°F  30.47"
2Mon 03:48 PM  64.4°F  74°F  4 mph W  4 mph  14 mph  ----  45%  43%  42°F  49°F  30.48"
Mon 03:00 PM  64.0°F  74°F  7 mph NW  4 mph  11 mph  0.00"  47%  43%  43°F  49°F  30.49"
Mon 02:00 PM  63.1°F  73°F  1 mph W  2 mph  9 mph  0.00"  50%  45%  43°F  49°F  30.51"
Mon 01:00 PM  61.5°F  71°F  1 mph E  2 mph  11 mph  0.00"  53%  49%  44°F  50°F  30.52"
Mon 12:00 PM  61.5°F  68°F  3 mph SW  2 mph  13 mph  0.00"  55%  55%  45°F  50°F  30.54"
Mon 11:00 AM  60.3°F  65°F  4 mph S  1 mph  7 mph  0.00"  56%  61%  44°F  51°F  30.53"
Mon 10:00 AM  58.3°F  61°F  3 mph SW  1 mph  9 mph  0.00"  64%  69%  46°F  51°F  30.52"
Mon 09:00 AM  57.2°F  58°F  calm  1 mph  8 mph  0.00"  65%  76%  45°F  50°F  30.51"
Mon 08:00 AM  55.9°F  56°F  4 mph W  1 mph  11 mph  0.00"  69%  81%  45°F  50°F  30.51"
Mon 07:00 AM  54.1°F  54°F  calm  1 mph  8 mph  0.00"  73%  84%  45°F  49°F  30.51"
Mon 06:00 AM  54.1°F  53°F  2 mph NW  1 mph  9 mph  0.00"  74%  84%  46°F  48°F  30.50"
3Mon 05:35 AM  54.1°F  53°F  2 mph NW  1 mph  7 mph  ----  74%  83%  46°F  48°F  30.49"
Mon 05:00 AM  54.5°F  53°F  4 mph NW  1 mph  9 mph  0.00"  74%  83%  46°F  48°F  30.48"
Mon 04:00 AM  55.9°F  54°F  4 mph W  1 mph  9 mph  0.00"  76%  82%  48°F  49°F  30.48"
Mon 03:00 AM  56.1°F  55°F  calm  1 mph  7 mph  0.00"  74%  82%  48°F  49°F  30.46"
Mon 02:00 AM  56.5°F  55°F  2 mph SW  1 mph  9 mph  0.00"  74%  80%  48°F  49°F  30.48"
Mon 01:00 AM  57.0°F  56°F  4 mph SW  1 mph  10 mph  0.00"  74%  79%  48°F  49°F  30.52"
Mon 12:01 AM  57.0°F  57°F  2 mph S  1 mph  8 mph  0.00"  74%  77%  48°F  50°F  30.51"
Sun 11:00 PM  57.6°F  58°F  4 mph SW  1 mph  8 mph  0.00"  71%  76%  48°F  50°F  30.48"
Sun 10:00 PM  57.9°F  59°F  4 mph SW  1 mph  11 mph  0.00"  69%  73%  47°F  50°F  30.49"
Sun 09:00 PM  59.0°F  61°F  8 mph SW  1 mph  13 mph  0.00"  68%  69%  48°F  50°F  30.49"
Sun 08:00 PM  60.4°F  63°F  8 mph SW  2 mph  20 mph  0.00"  63%  65%  47°F  51°F  30.45"
Sun 07:00 PM  63.9°F  67°F  10 mph S  3 mph  20 mph  0.00"  59%  57%  49°F  51°F  30.41"
Sun 06:00 PM  68.4°F  71°F  10 mph SW  5 mph  18 mph  0.00"  51%  51%  49°F  51°F  30.39"
Sun 05:00 PM  70.2°F  73°F  7 mph SW  5 mph  13 mph  0.00"  50%  45%  50°F  50°F  30.38"
Sun 04:00 PM  70.3°F  75°F  2 mph SW  5 mph  11 mph  0.00"  53%  42%  52°F  49°F  30.40"
Sun 03:00 PM  68.4°F  75°F  4 mph SW  4 mph  11 mph  0.00"  59%  42%  53°F  49°F  30.42"
Sun 02:00 PM  65.1°F  73°F  4 mph SW  2 mph  13 mph  0.00"  66%  43%  53°F  49°F  30.43"
Sun 01:00 PM  63.3°F  71°F  8 mph SW  2 mph  11 mph  0.00"  70%  47%  53°F  49°F  30.43"
Sun 12:00 PM  61.9°F  68°F  6 mph SW  2 mph  13 mph  0.00"  75%  53%  54°F  50°F  30.45"
Sun 11:00 AM  61.2°F  65°F  8 mph SW  1 mph  11 mph  0.00"  78%  59%  54°F  50°F  30.45"
Sun 10:00 AM  59.0°F  62°F  4 mph SW  1 mph  11 mph  0.00"  88%  66%  55°F  50°F  30.44"
Sun 09:00 AM  57.7°F  59°F  8 mph S  1 mph  11 mph  0.00"  91%  73%  55°F  50°F  30.44"
Sun 08:00 AM  57.0°F  56°F  3 mph S  1 mph  7 mph  0.00"  93%  79%  55°F  49°F  30.43"
Sun 07:00 AM  56.8°F  53°F  2 mph S  1 mph  7 mph  0.00"  93%  83%  55°F  48°F  30.43"
Sun 06:00 AM  57.0°F  53°F  5 mph SW  1 mph  7 mph  0.00"  92%  82%  55°F  47°F  30.40"
Sun 05:00 AM  57.6°F  53°F  2 mph SW  1 mph  7 mph  0.00"  92%  82%  55°F  47°F  30.40"
Sun 04:00 AM  57.4°F  54°F  3 mph SW  1 mph  9 mph  0.00"  92%  81%  55°F  48°F  30.40"

  1. Current weather data. No green row appears if the current weather data is also the high or low for the current day.
  2. High temperature for the current day.
  3. Low temperature for the current day.

The San Jacinto, California weather pages are a service of WeatherCurrents. San Jacinto is located in the heart of the San Jacinto Valley, near Hemet, the Soboba Casino, and at the foot of the San Jacinto Mountains.
Copyright ©Mon May 04 15:50:16 PDT 2026  WeatherCurrents. All rights reserved. - Submit questions and comments - Privacy Policy

This page automatically refreshes every 10 minutes.